Location: Newark
(44.3681°N, 100.3364°W)
Time: 05:30:52
(UTC+00:00)

Vanguard 1 - Pass Details

Date: 22 February 2020
Orbit: 649 x 3833 km, 34.2° (Epoch: 07 April)

Event Time Altitude Azimuth Distance (km) Brightness Sun altitude
Rises 14:47:20 0° 234° (SW) 7,969 14.4 12.0°
Reaches altitude 10° 14:53:12 10° 230° (SW) 6,880 14.2 12.9°
Maximum altitude 15:13:42 49° 164° (SSE) 3,554 13.7 16.0°
Drops below altitude 10° 15:26:41 10° 95° (E) 4,544 14.7 18.0°
Sets 15:29:39 0° 90° (E) 5,195 14.7 18.4°
